Location: Home
(42.5358°N, 72.7383°W)
Time: 13:26:01
(UTC-05:00)

Transit 2A - Visible Passes

Search period start: 06 December 2021 00:00
Search period end: 16 December 2021 00:00
Orbit: 591 x 967 km, 66.7° (Epoch: 05 December)

Date Brightness Start Highest point End Pass type
(mag) Time Alt. Az. Time Alt. Az. Time Alt. Az.
06 Dec 8.5 06:16:57 10° N 06:21:23 19° NE 06:25:44 10° E visible
07 Dec 8.6 05:43:06 10° N 05:46:43 15° NNE 05:50:18 10° ENE visible
08 Dec 8.7 05:09:25 10° N 05:12:00 12° NNE 05:14:34 10° NE visible
09 Dec 8.9 04:36:30 10° NNE 04:37:13 10° NNE 04:37:55 10° NNE visible
09 Dec 7.9 06:16:58 10° NNW 06:22:38 32° NE 06:28:05 10° ESE visible
10 Dec 8.2 05:42:56 10° NNW 05:48:07 25° NE 05:53:08 10° E visible
11 Dec 8.5 05:08:58 10° N 05:13:32 20° NE 05:17:59 10° E visible
12 Dec 8.7 04:35:06 10° N 04:38:53 16° NNE 04:42:36 10° ENE visible
12 Dec 7.0 06:17:14 10° NNW 06:23:34 59° NE 06:29:31 10° SE visible
13 Dec 8.8 04:02:00 11° N 04:04:10 13° NNE 04:06:55 10° NE visible
13 Dec 7.4 05:43:06 10° NNW 05:49:12 44° NE 05:54:58 10° ESE visible
14 Dec 9.0 03:28:57 10° NNE 03:29:23 11° NNE 03:30:37 10° NE visible
14 Dec 7.8 05:09:27 12° NNW 05:14:45 34° NE 05:20:14 10° ESE visible
15 Dec 8.1 04:36:29 16° N 04:40:15 26° NE 04:45:19 10° E visible
15 Dec 6.4 06:17:49 10° NW 06:24:09 71° WSW 06:30:03 10° SSE visible
